Location: Unspecified
(35.0542°N, 0.0000°E)
Time: 00:59:53
(UTC+00:00)

RUBIN 9.1/RUBIN 9.2/PSLV - Visible Passes

Search period start: 04 April 2026 00:00
Search period end: 14 April 2026 00:00
Orbit: 709 x 784 km, 98.3° (Epoch: 29 March)

Date Brightness Start Highest point End Pass type
(mag) Time Alt. Az. Time Alt. Az. Time Alt. Az.
10 Apr 8.4 01:25:19 10° N 01:25:20 10° N 01:25:20 10° N visible
12 Apr 8.4 01:40:06 10° NNW 01:40:07 10° NNW 01:40:07 10° NNW visible
13 Apr 8.4 00:57:20 10° N 00:57:37 11° N 00:57:37 11° N visible
